Persoonlijke zone
Imprimable
Liège, 01/10/2017, BEL - Liège 10 KM
Rapportenlijst > 10km - Resultaat
Zoek: Bladzijde: [1]
125 Inputs
 
Klachten worden niet meer geaccepteerd. Resultaten zijn definitief.
PlaatsNrNaamLeef.IOCClubTijdTkmGem.ScrGemeente
1.2797FBENOUMEUR Mélissa37BEL42:064:13 14.25200ETTERBEEK
2.88FROSU Melanie35BEL44:404:28 13.43322OUGREE
3.2942FMARTINEZ Amelia39ESP47:434:47 12.57544HERMÉE
4.621FCOLLELUORI Sylvie39ITA47:504:47 12.55551ALLEUR
5.1533FLEBLANC Géraldine35BEL48:484:53 12.30614LIEGE
6.495FPOST Helina36BEL49:454:59 12.06693BRUXELLES
7.507FMARICHAL Delphine39BEL51:045:07 11.75818SOIRON
8.1757FSIMON Nathalie37BEL52:265:15 11.45946NAMUR
9.2124FCORNET Celine38BEL52:365:16 11.41965FERRIERES
10.2817FFRAITURE Caroline35BEL52:445:17 11.38979CHAUDFONTAINE
11.2732FHIERNAUX Aurelie38BEL52:555:18 11.341006HERVE
12.2652FPETE Dorothee37BEL52:575:18 11.331010AYWAILLE
13.2648FMATHIEU Christelle37BEL53:115:20 11.281035AYWAILLE
14.1833FMORLEGHEM Elisabeth38BEL53:375:22 11.191075HONDELANGE
15.2796FDEFENDI Sara39BEL53:445:23 11.171095SPRIMONT
16.1688FWILLEMS Sandrine39BEL54:225:27 11.041158MONTZEN
17.618FBEAUFAYS Chloé36BELCAP NRB54:415:29 10.971185LIÈGE
18.2663FDOYEN Cindy37BEL54:525:30 10.941201AYWAILLE
19.1829FDUCULOT Isabelle38BEL54:535:30 10.931204HERMÉE
20.2832FBLAVIER Marie-Noëlle35BEL54:535:30 10.9312054030
21.1516FDELCOMINETTE Céline35BEL55:115:32 10.881233VIVEGNIS
22.2793FVAN DEN HEUVEL Anne-Catherine35BEL55:135:32 10.871239ODEUR
23.1872FHOMBURG Melanie36BEL55:525:36 10.741293HORION HOZEMONT
24.1705FTHIRION Valérie36BEL55:585:36 10.721307JEHAY
25.757FROUMEN Tamara36NLD56:055:37 10.701318MAASTRICHT
26.830FBOXUS Natacha38BEL56:055:37 10.701320LIÈGE
27.1979FMALHERBE Lara38BEL56:115:38 10.681324LIEGE
28.382FDOUCY Maud39BELSUEZ BELGIUM56:165:38 10.671330GRÂCE-HOLLOGNE
29.544FSOMJA Anne-Michele39BEL56:305:39 10.621354CHARNEUX
30.2590FBOULANGER Roxane37BEL56:455:41 10.571380AYWAILLE
31.386FDUBUISSON Marie35BELSUEZ BELGIUM57:095:43 10.501419GRÂCE-HOLLOGNE
32.801FPINEUX Bérangère35BEL57:115:44 10.491421PESSOUX
33.2976FBAUWENS Charlotte37BEL57:205:44 10.471435HERVE BELGIQUE
34.2269FLEFORT Agnes39BEL57:335:46 10.431449VILLERS LE BOUILLET
35.616FPAULUS Françoise39BEL58:025:49 10.341484SOUMAGNE
36.2578FSCHROYEN Sandra39BEL58:325:52 10.251541HOUTAIN SAINT SIMEON
37.1884FKHALEEFEH Nora38BEL58:455:53 10.211557POUSSET
38.753FNEUBERG France36BEL58:495:53 10.201562VAUX-SUR-SURE
39.2891FDETRIXHE Carole38BEL59:105:55 10.141590LIEGE
40.449FVIGNERONT Anne-Sophie35BEL59:155:56 10.131595COUTHUIN
41.486FDECKERS Celine39NLD59:185:56 10.121609BEEK
42.2825FBROCAL Florence35BEL59:255:57 10.101618LIÈGE
43.285FDE BEER Rachel35NLDTRAINING MAASTRICHT59:305:57 10.091625MAASTRICHT
44.2354FFRANÇOIS Nathalie39BEL59:335:58 10.081630LIEGE
45.968FJACOB Audrey Stéphanie37BEL59:335:58 10.081631CHAUDFONTAINE
46.1976FAGIRMAN Suheyla38BEL59:405:58 10.061645HERSTAL
47.2837FDURELLO Valérie37BEL59:455:59 10.041649AMAY
48.622FJABRANE Fatima35BEL1:00:006:00 10.001674HERSTAL
49.2298FRIORDAN Rebecca39BEL1:00:036:01 9.991678WANDRE
50.2900FMARTELANGE Stéphanie38BEL1:00:056:01 9.991682SERAING
51.2887FSANFILIPPO Coralie39BEL1:00:166:02 9.961698SAIVE
52.1454FCOHEUR Murielle37BEL1:00:176:02 9.961699EMBOURG
53.1508FMAHIELS Julie39BEL1:00:266:03 9.931711LIÈGE
54.1993FDELCOMMINETTE Cindy36BEL1:00:566:06 9.851748HERVE
55.2516FPIROTTON Florence37BEL1:00:576:06 9.851752LIÈGE
56.2991FDUPLOUY Sigrid36BEL1:01:046:07 9.831770FRANCE
57.2990FDELEERSNYDER Jessica36BEL1:01:056:07 9.821771VERLAINE
58.767FJUDONG Liese35BEL1:01:076:07 9.821773HASSELT
59.563FVINAMONT Virginie37BEL1:01:126:08 9.801779LIÈGE
60.1603FSALINAS Tisbeth38VEN1:01:156:08 9.801782SINT NIKLAAS
61.645FVERDONSCHOT Denise36NLD1:01:416:11 9.731826MAASTRICHT
62.869FFONTAINE Anne-France37BEL1:01:426:11 9.721828ANDENNE
63.1046FWATHELET Vincianne Paula38BEL1:01:526:12 9.701844LIÈGE
64.2567FNIVARLET Françoise35BEL1:01:596:12 9.681847BONCELLES
65.1407FCROCHELET Marie38BEL1:02:106:13 9.651866WARNANT
66.1405FSPITZ Hélène35BEL1:02:236:15 9.621880LIÈGE
67.1971FLYDAKIS Delphine37BEL1:02:266:15 9.611887LIÈGE
68.2610FROUMANS Valerie36BEL1:02:276:15 9.611889HACCOURT
69.1168FVANRUMBEKE Helene39BEL1:02:316:16 9.601893FLERON
70.583FFRISQUE Eveline37BEL1:02:376:16 9.581901GREZ DOICEAU
71.842FHENDRICK Christel37BEL1:02:526:18 9.551925LIÈGE
72.2714FDAOUT Marie-France37BEL1:02:576:18 9.5319304000
73.1706FDESCY Julie36BEL1:03:016:19 9.521939NEUPRÉ
74.1377FLOMONTE Nathalie38BEL1:03:106:19 9.501956ROCOURT
75.999FUCCELLATORE Sarah38BEL1:03:206:20 9.481969SERAING
76.430FDEFOSSÉ Gladys36BEL1:03:236:21 9.471972AYWAILLE
77.2369FBAZZANI Vanessa37BEL1:03:256:21 9.461974ALLEUR
78.2571FJEURISSEN Lucie38BEL1:03:326:22 9.441983ANS
79.1206FSMITS Kirsten38NLD1:03:446:23 9.412001MAASTRICHT
80.1507FLIBERT Florence37BEL1:03:516:24 9.402008BEYNE-HEUSAY
81.2556FLOCHET Stéphanie38BEL1:03:526:24 9.402010HORION-HOZEM.
82.860FBRUCKMANN Yvette39BEL1:04:196:26 9.332039JUPILLE
83.2758FNELISSEN Nathalie39BEL1:05:136:32 9.202098JUPILLE
84.1307FGRÉGOIRE Charline35BEL1:05:216:33 9.182104LAMBERMONT
85.595FBRUYERE Beatrice39BEL1:05:216:33 9.182105ARGENTEAU
86.593FMANSET Helene35BEL1:05:256:33 9.172109LIEGE
87.873FDELBEUCK Aurore35BEL1:05:326:34 9.162117VERVIERS
88.1657FVANHAEREN Valérie38BEL1:05:376:34 9.1421244100
89.694FJOASSIN Marir39BEL1:05:546:36 9.112133SAIVE
90.302FVANLIBERGEN Ingrid39BELCHBA1:05:556:36 9.102135OUGRÉE
91.1761FBAIWIR Julie36BEL1:06:046:37 9.082143WELKENRAEDT
92.687FFRAITURE Maud38BEL1:06:136:38 9.062152FLOREFFE
93.387FBEUSEN Joke37BELSUEZ BELGIUM1:06:346:40 9.012184GRÂCE-HOLLOGNE
94.2974FAGUIAR Soledad35BEL1:06:526:42 8.972194WANDRE
95.1608FSPAGNOLO Lina36BEL1:07:336:46 8.882223BEYNE-HEUSAY
96.1728FDUBREUCQ Marie39BEL1:07:496:47 8.852244SOUMAGNE
97.2777FSIMON Satya35BEL1:07:556:48 8.842253SAINT-GEORGES
98.1640FVANROOSBROECK Sandrine39BEL1:08:016:49 8.822255JEHAY
99.2028FMERLAN Sylvie37BEL1:08:056:49 8.812257LIEGE
100.1865FHUBERT Laurence36BEL1:08:106:49 8.802258WELKENRAEDT
101.1061FDILIBERTO Antonella37BEL1:08:186:50 8.792265SPRIMONT
102.2651FBASTIN Nicole37BEL1:08:396:52 8.742276AYWAILLZ
103.2528FVANESSE Adeline38BEL1:08:426:53 8.742279LANAYE
104.1699FBONTEMPS Géraldine35BEL1:09:126:56 8.672297JUPILLE
105.2947FDUFOUR Marie35BEL1:09:156:56 8.672299FLÉMALLE
106.2691FPOLIFEMO Stéphanie35ITA1:09:446:59 8.612318SAINT-NICOLAS
107.295FPRESTIGIACOMO Aurore36BELCHBA1:10:007:00 8.572328SERAING
108.2775FHENNICKEN Delphine35BEL1:10:107:01 8.552334LIEGE
109.2953FGUILLAUME Anne37BEL1:10:247:03 8.522344WARNANT -DREYE
110.1093FDIGREGORIO Séverine36BEL1:10:307:03 8.512349OLNE
111.1798FLENTO Rosa36ITA1:11:017:07 8.452364OUPEYE
112.665FCHEVOLET Sophie36BEL1:11:067:07 8.442372VIELSALM
113.537FBERNARD Aude35BEL1:11:217:09 8.412379LIÈGE
114.1303FDOPPEE Magali35BEL1:11:417:11 8.372386FLERON
115.2715FDERESE Marie-Noelle35BEL1:12:257:15 8.292405BRUXELLES
116.1714FSIMAYS Caroline37BEL1:14:067:25 8.102451MAGNÉE
117.1713FVILLEMINOT Anne-Laure37BEL1:14:067:25 8.102452LIÈGE
118.956FDAVID Geoffrey36BEL1:14:197:26 8.072455ANGLEUR
119.955FDEFOSSÉ Ann-Sophie35BEL1:14:207:26 8.072457ANGLEUR
120.2400FREMICHE Marie-Odile35BEL1:14:567:30 8.012466YVOIR
121.1678FBLAVIER Anne-Cecile39BEL1:15:057:31 7.992469LIÈGE
122.2716FDERESE Anne-Catherine38BEL1:17:587:48 7.702482BRUXELLES
123.2545FLEMMENS Isabelle36BEL1:18:067:49 7.682484WAREMME
DNF2661FDUFRASNE Isabelle37BELAYWAILLE
DNF1737FFAURE Vanessa39BELLIEGE
DNF: abandon; DSQ: disqualifié; Vitesse en km/h
Bladzijde: [1]